This demonstration page uses our WeatherBlox Daily Observations layout. Learn more.

Left ArrowRight Arrow

Hourly Observations for July 1, 2019

Temp ( °F °C ) Dew Point ( °F °C ) Humidity (%) Winds ( mph kmh ) Pressure ( in mb ) Visibility ( mi km ) Precip ( " mm )
12:51 am 00:51 Clear 83 28.3 46 7.8 27 27 WSW 7 11 29.78 1009 10 16 0.00 0.00
1:51 am 01:51 Clear 78 25.6 49 9.4 36 36 Calm 29.79 1009 10 16 0.00 0.00
2:51 am 02:51 Clear 77 25 48 8.9 36 36 Calm 29.78 1008 10 16 0.00 0.00
3:51 am 03:51 Clear 73 22.8 46 7.8 38 38 NNE 3 6 29.79 1009 10 16 0.00 0.00
4:51 am 04:51 Clear 72 22.2 46 7.8 40 40 Calm 29.80 1009 10 16 0.00 0.00
5:51 am 05:51 Sunny 74 23.3 47 8.3 38 38 Calm 29.82 1010 10 16 0.00 0.00
6:51 am 06:51 Sunny 79 26.1 49 9.4 35 35 Calm 29.83 1010 10 16 0.00 0.00
7:51 am 07:51 Sunny 84 28.9 50 10 31 31 Calm 29.84 1011 10 16 0.00 0.00
8:51 am 08:51 Sunny 87 30.6 48 8.9 26 26 S 3 6 29.83 1010 10 16 0.00 0.00
9:51 am 09:51 Sunny 91 32.8 48 8.9 23 23 W 7 11 29.82 1010 10 16 0.00 0.00
10:51 am 10:51 Sunny 97 36.1 45 7.2 17 17 WNW 10 17 29.79 1009 10 16 0.00 0.00
11:51 am 11:51 Sunny 102 38.9 41 5 12 12 NNW 8 13 29.77 1008 10 16 0.00 0.00
12:51 pm 12:51 Mostly Sunny 101 38.3 40 4.4 12 12 W 9 15 29.75 1007 10 16 0.00 0.00
1:51 pm 13:51 Mostly Cloudy 105 40.6 40 4.4 11 11 NW 20 31 29.71 1006 10 16 0.00 0.00
2:51 pm 14:51 Cloudy 106 41.1 35 1.7 9 9 WNW 18 30 29.67 1005 10 16 0.00 0.00
3:51 pm 15:51 Mostly Cloudy 106 41.1 32 0 8 8 NW 20 31 29.66 1004 10 16 0.00 0.00
4:51 pm 16:51 Mostly Cloudy 104 40 30 -1.1 7 7 NW 17 28 29.65 1004 10 16 0.00 0.00
5:51 pm 17:51 Mostly Cloudy 102 38.9 28 -2.2 7 7 WNW 22 35 29.66 1004 10 16 0.00 0.00
6:51 pm 18:51 Mostly Cloudy 99 37.2 32 0 9 9 WNW 16 26 29.67 1005 10 16 0.00 0.00
7:51 pm 19:51 Mostly Cloudy 95 35 35 1.7 12 12 WNW 14 22 29.69 1005 10 16 0.00 0.00
8:51 pm 20:51 Mostly Clear 90 32.2 37 2.8 15 15 NW 9 15 29.72 1006 10 16 0.00 0.00
9:51 pm 21:51 Clear 89 31.7 43 6.1 20 20 SSE 9 15 29.75 1008 10 16 0.00 0.00
10:51 pm 22:51 Clear 86 30 48 8.9 27 27 SE 13 20 29.76 1008 10 16 0.00 0.00
11:51 pm 23:51 Clear 84 28.9 48 8.9 29 29 ENE 9 15 29.76 1008 10 16 0.00 0.00

Powered by AerisWeather